Vorticity
nan nan nan nan nan nan nan nan nan nan nan nan nan nan nan nan nan nan nan nan nan nan nan nan nan nan nan nan nan nan nan nan nan nan nan nan nan nan nan nan nan nan nan
nan 5 6 7 8 11 8 6 6 8 9 9 7 5 7 7 10 6 6 9 8 4 4 1 2 6 7 8 6 5 6 6 5 6 6 5 6 5 5 5 4 4 nan
nan 9 8 7 9 7 8 10 6 9 8 6 9 10 13 6 5 7 6 10 11 5 5 5 5 5 7 6 6 7 5 6 6 5 5 5 6 6 5 5 5 5 nan
nan 8 8 8 7 11 9 7 6 6 8 7 11 10 12 10 9 10 8 5 11 11 9 9 7 6 5 6 7 7 6 7 6 6 5 6 6 6 6 4 5 5 nan
nan 7 7 7 7 7 9 11 7 6 7 8 9 15 9 9 12 9 11 8 7 7 15 12 5 7 6 4 6 7 7 6 7 6 6 6 6 6 6 5 6 6 nan
nan 8 7 7 8 11 6 6 10 6 7 7 11 8 8 11 10 10 11 11 7 10 5 11 11 9 11 7 7 8 7 5 5 6 6 7 8 6 6 6 6 6 nan
nan 7 8 10 10 7 7 8 8 5 8 10 7 6 14 11 11 8 10 8 7 11 9 6 7 9 14 13 6 8 8 7 7 6 6 7 8 7 6 6 6 7 nan
nan 7 7 9 7 6 11 10 7 6 7 11 10 9 7 9 8 9 10 11 11 6 10 9 8 5 9 14 15 10 7 8 8 7 6 7 7 6 6 7 7 7 nan
nan 9 7 10 8 8 12 8 7 5 6 5 7 13 7 9 8 12 10 9 10 11 9 10 10 10 7 8 13 14 9 6 6 6 8 7 6 7 6 6 6 7 nan
nan 8 9 11 7 6 9 10 8 7 8 6 7 9 5 9 7 12 8 10 10 8 6 8 11 13 10 6 8 16 19 6 7 6 6 7 7 6 6 6 6 6 nan
nan 10 10 8 7 6 7 11 10 9 5 7 10 6 8 7 9 10 11 9 7 13 9 9 11 10 8 10 9 12 16 13 10 9 9 8 7 7 5 5 5 6 nan
nan 13 10 8 9 9 10 6 7 10 6 5 7 8 8 8 10 5 10 13 10 9 11 9 7 10 12 11 9 13 15 12 10 10 10 9 9 7 6 6 7 7 nan
nan 13 8 9 9 8 8 9 10 8 9 7 4 6 7 7 9 8 9 8 12 9 10 10 9 9 9 10 13 14 10 8 9 10 10 10 10 9 9 9 8 8 nan
nan 9 11 9 10 10 8 8 7 8 10 8 7 9 6 6 8 9 8 7 9 7 9 13 12 9 10 9 14 12 5 13 8 8 8 9 9 9 9 9 10 10 nan
nan 13 11 10 11 9 9 7 9 8 8 12 9 8 7 9 5 10 7 9 8 6 9 9 7 11 8 11 12 10 12 14 10 8 8 8 9 9 9 9 9 9 nan
nan 12 11 10 11 12 10 9 6 10 10 9 9 9 7 9 8 6 11 10 3 7 11 11 10 7 7 12 11 6 6 14 18 8 7 8 9 9 10 10 10 10 nan
nan 7 11 13 12 9 12 12 11 11 10 7 7 12 9 5 11 9 7 8 9 12 12 12 11 9 8 4 5 10 10 6 13 16 8 8 8 8 9 9 10 11 nan
nan 10 9 12 13 11 11 10 11 11 11 11 11 6 9 11 6 7 6 10 9 9 11 12 10 12 12 10 9 6 6 7 15 20 15 8 8 9 10 10 9 10 nan
nan 11 9 11 11 12 11 10 12 11 12 13 14 12 12 12 12 9 8 6 9 9 9 9 8 4 9 9 13 12 8 11 14 20 18 9 9 9 8 9 9 9 nan
nan 7 8 9 10 10 11 11 11 8 11 13 11 10 15 16 16 14 13 11 10 9 10 9 10 9 8 8 9 9 10 9 9 9 15 19 16 13 10 8 9 9 nan
nan 9 10 8 8 9 6 10 11 10 8 7 9 13 12 10 9 11 14 14 12 11 11 10 9 10 11 11 8 9 9 10 12 9 10 7 8 16 20 14 15 14 nan
nan 9 9 8 10 6 5 10 14 12 11 11 8 9 12 16 7 6 8 5 6 7 8 10 9 7 9 12 10 8 10 12 9 12 13 10 9 8 10 19 19 16 nan
nan 8 9 7 9 4 4 10 13 13 9 11 9 9 11 8 11 10 12 12 11 10 6 7 10 8 6 9 11 11 8 8 9 7 9 10 8 8 9 10 14 19 nan
nan 10 10 10 7 2 5 9 15 17 13 8 9 10 11 5 6 10 10 12 12 13 12 10 11 12 8 6 9 10 10 11 12 12 10 9 10 10 10 16 15 13 nan
nan 11 11 11 6 3 5 10 17 16 10 9 8 13 17 9 4 11 13 11 12 15 16 10 7 8 12 10 7 8 10 11 10 10 14 15 12 11 10 10 15 23 nan
nan nan nan nan nan nan nan nan nan nan nan nan nan nan nan nan nan nan nan nan nan nan nan nan nan nan nan nan nan nan nan nan nan nan nan nan nan nan nan nan nan nan nan
CAPE
1754 1263 1071 315 235 52 54 345 1626 1242 1559 1542 1283 849 1375 1342 495 656 429 1113 1576 1506 745 977 1262 1639 1644 1715 1786 1925 886 2038 1389 1444 1930 1834 1920 1409 1783 1350 1374 1443 1448
1230 1627 1252 1864 1681 506 652 206 1944 1411 1639 1284 928 1165 1119 1212 1350 861 378 650 1113 1010 525 89 410 1107 1467 1665 1765 1929 1413 1932 2103 1393 1808 1980 1978 1748 1805 1663 1146 1195 1450
1908 1481 2066 2169 1757 934 443 418 1910 1506 1534 588 1094 1306 1857 1336 895 791 1082 689 124 106 172 924 837 987 1303 1413 1698 2011 1569 2078 2030 2043 1651 1775 2085 1938 1934 2030 1803 1797 1383
1848 1305 1125 2068 1553 440 394 388 2310 2038 1248 1394 1220 2041 2424 2002 1713 1560 1014 1021 615 181 485 1063 1678 1368 1625 1681 1850 1993 2269 2540 2297 2172 2313 1843 1994 1946 1888 1639 1580 1766 1917
1806 1719 1110 2466 1613 719 1517 665 2241 1502 1721 614 758 2694 1523 2607 1998 1943 1567 1125 1159 572 549 1148 1474 1921 1328 1397 1822 2080 2088 2398 2687 2485 2487 2518 2222 2151 2131 2063 1806 1893 1959
998 2474 1816 2457 1743 1646 775 1630 1574 1932 1636 761 898 1453 1934 1763 2186 2363 1831 1549 1183 932 782 1070 682 631 1613 1278 2051 2392 2058 2177 2337 2464 2789 2875 2770 2269 2252 2235 2215 2133 2131
1117 2206 2801 2292 1664 1406 1211 1883 1452 1748 1998 1811 2209 858 1069 1673 1815 1854 1544 1846 1296 1074 760 1051 899 744 841 1604 1859 2333 2306 2398 2254 2436 2815 2581 2724 2652 2634 2383 2175 2118 2063
2241 2017 1807 2072 1941 2050 1763 1619 1668 1819 2336 1884 1649 909 1845 1923 2086 2059 1215 1513 1658 1033 991 966 949 1375 1023 830 738 1981 2372 2389 2589 2604 2716 2737 2385 2411 2422 2359 2308 2177 2047
1670 1663 1468 2280 1408 1499 2125 1111 1644 1508 2395 2120 1447 1756 918 1177 1379 2269 1571 1337 2231 1193 1191 1088 855 942 1081 1115 1394 1421 2014 1941 2356 2637 2841 2773 2675 2510 2363 2225 2097 2166 2279
1325 967 1722 1573 1526 1320 1977 1407 971 1420 1570 1758 669 1969 1163 1534 1776 2035 1853 1466 1574 1431 1606 1357 989 1031 1180 1087 1294 1608 1595 1312 1695 2141 2549 2734 2743 2726 2677 2465 2141 1897 1910
825 1004 1596 1760 1754 2077 2579 2100 1048 1297 1157 1715 1518 2470 1703 2374 1742 1471 1982 2550 1646 1829 1516 1576 1246 1037 994 807 699 768 1493 1315 1317 1545 1788 2210 2709 2982 2988 2835 2574 2281 2095
931 2114 1444 1821 1965 2007 1837 1186 1939 1355 1606 1365 2793 1816 2473 1281 968 2458 1496 1565 980 1785 1766 1475 1520 1532 1152 1344 1318 1526 1440 1290 1275 1375 1543 1704 2175 2598 2810 2937 2966 2970 2830
1719 2474 2411 2325 1765 1689 1734 1926 1649 2393 1760 1502 1341 1567 2168 1815 2006 1615 1712 1868 1462 1707 1667 1377 1496 1816 1599 1860 1686 1604 1941 1089 844 828 993 1108 1363 1686 2082 2447 2689 2766 2795
1556 1658 1869 2004 1884 1811 1750 2224 2537 1827 1956 1656 1777 1859 1824 1580 2096 1034 1256 1649 1771 1565 2099 1774 2022 1850 2294 2136 2460 2012 1727 845 818 628 487 481 637 820 1077 1329 1527 1725 1943
1339 2343 2219 2203 1985 1907 1808 1803 1677 1705 2073 1596 1979 2350 1436 1389 1689 1975 843 831 1755 2181 1265 1335 1976 1821 2040 2027 1701 1769 1797 1209 574 531 393 289 254 291 418 534 663 814 1002
2440 2469 2636 2123 1992 2229 1981 2068 2344 2218 2382 1657 1769 2667 1959 1694 1230 1869 1592 842 741 618 1165 993 1034 1486 1978 2523 2059 2018 1739 1400 585 511 329 172 85 67 100 167 260 314 384
2419 1997 2067 2201 2005 2067 1942 2208 2408 2091 2064 2029 1934 2333 2535 2707 1955 1288 1728 940 1326 1016 770 706 1483 2306 3700 2706 2170 2575 2292 2102 1553 672 403 223 92 9 7 21 26 36 69
2620 2690 2630 2310 2050 2047 1991 2261 1899 1911 1950 2197 2108 2291 1964 1830 2797 2829 2015 3530 2703 2535 1899 3094 2088 1917 2649 3722 3494 3734 2087 1254 1180 588 335 181 89 12 0 0 0 0 0
490 579 959 2105 2029 1901 1957 1912 1630 1376 1737 1740 1857 2047 1928 2017 2363 2881 1827 2816 2863 3089 2268 2165 1355 1836 2015 2439 2595 2725 3035 3006 2126 1268 232 80 0 0 0 0 0 0 0
545 457 431 424 461 449 350 540 1791 1411 1350 1562 1641 1317 1430 1780 1845 1901 2245 2349 2648 2586 2308 2498 1933 2426 3252 2607 2738 2510 2071 3521 2010 1530 1493 953 600 107 0 0 0 0 0
514 406 339 343 225 34 14 79 384 92 114 166 189 148 799 54 0 64 379 1640 1686 2008 2249 2089 2132 2624 2339 1892 2591 2527 2031 1684 2545 1568 1490 1413 1187 1294 1481 0 46 0 0
352 261 175 95 8 0 0 0 0 0 0 1 4 8 14 112 7 0 0 0 0 86 554 617 206 300 1389 567 232 164 175 150 152 214 289 121 129 358 315 94 848 445 53
244 178 91 44 102 0 0 0 0 2 1 11 7 9 1 31 0 0 0 0 0 0 0 0 7 25 466 629 947 975 999 520 453 242 248 78 38 11 44 19 0 0 0
53 17 10 9 13 0 0 0 0 0 3 5 7 9 12 10 0 0 0 0 1 2 1 15 64 36 27 1 13 109 206 211 218 92 412 150 283 341 269 297 8 1 17
52 19 15 15 15 0 0 0 0 0 3 3 9 16 15 14 0 0 0 0 8 8 3 1 0 0 0 0 0 0 4 18 11 7 31 71 131 234 240 132 277 7 3
77 40 13 11 2 1 0 0 0 0 1 0 0 0 0 0 0 0 0 1 8 11 5 6 14 0 2 3 0 2 49 111 104 136 262 53 85 91 83 225 433 457 423